Location: Ahstedt
(52.2048°N, 10.1060°E)
Time: 07:23:18
(UTC+00:00)

CZ-4C R/B - Pass Details

Date: 18 January 2026
Orbit: 482 x 1496 km, 63.4° (Epoch: 18 February)

Event Time Altitude Azimuth Distance (km) Brightness Sun altitude
Exits shadow 06:00:11 11° 316° (NW) 2,599 4.2 -11.6°
Maximum altitude 06:06:20 61° 37° (NE) 1,271 3.2 -10.7°
Drops below altitude 10° 06:14:27 10° 117° (ESE) 3,377 7.0 -9.6°
Sets 06:17:40 0° 121° (ESE) 4,455 8.1 -9.1°
